Location: Bretagne
(43.8474°N, 0.4650°W)
Time: 20:06:54
(UTC+00:00)

SKYMED 2 - Pass Details

Date: 15 January 2026
Orbit: 622 x 624 km, 97.9° (Epoch: 13 February)

Event Time Altitude Azimuth Distance (km) Brightness Sun altitude
Exits shadow 17:49:28 - 17° (NNE) 2,947 6.7 -10.6°
Rises 17:49:33 0° 17° (NNE) 2,913 6.7 -10.6°
Reaches altitude 10° 17:51:48 10° 23° (NNE) 2,001 5.8 -11.0°
Maximum altitude 17:56:03 52° 100° (E) 774 3.7 -11.7°
Drops below altitude 10° 18:00:17 10° 177° (S) 1,984 6.3 -12.5°
Sets 18:02:30 0° 182° (S) 2,885 7.3 -12.9°
